Location: Elbart
(49.6135°N, 11.9134°E)
Time: 09:18:55
(UTC+00:00)

USA 234 - Pass Details

Date: 09 April 2020
Orbit: 1102 x 1106 km, 123.0° (Epoch: 14 May)

Event Time Altitude Azimuth Distance (km) Brightness Sun altitude
Rises 21:33:19 0° 57° (ENE) 3,926 6.2 -28.4°
Reaches altitude 10° 21:35:48 10° 57° (ENE) 2,966 5.6 -28.5°
Maximum altitude 21:42:22 85° 330° (NNW) 1,113 3.2 -29.0°
Drops below altitude 10° 21:48:55 10° 243° (WSW) 2,959 5.5 -29.5°
Sets 21:51:24 0° 243° (WSW) 3,916 6.1 -29.6°
